YO6IKB-10 Weather Reports


Display with metric or nautical units.
time (UTC)temp
F
wind
direction
speed
MPH
gust
MPH
rain 1hr
in
rain 24hr
in
rain mn
in
humidity
%
barometer
mb
20260509010249 56 67 1.0 2.0 0.00 0.14 0.00 86 1011.2
20260509005749 56 67 2.0 2.0 0.00 0.14 0.00 86 1011.2
20260509005248 57 67 0.0 1.0 0.00 0.14 0.00 86 1011.2
20260509004748 57 67 0.0 1.0 0.00 0.14 0.00 86 1011.2
20260509004248 57 67 0.0 2.0 0.00 0.14 0.00 86 1011.2
20260509003747 57 67 0.0 1.0 0.00 0.14 0.00 86 1011.3
20260509003247 57 67 0.0 2.0 0.00 0.14 0.00 86 1011.2
20260509002747 57 90 0.0 2.0 0.00 0.16 0.00 86 1011.2
20260509002246 57 90 0.0 3.0 0.00 0.16 0.00 86 1011.2
20260509001746 57 90 2.0 3.0 0.00 0.16 0.00 87 1011.2
20260509001246 57 90 3.0 4.0 0.00 0.16 0.00 87 1011.3
20260509000746 57 90 2.0 2.0 0.00 0.16 0.00 87 1011.2
20260509000245 57 67 1.0 2.0 0.00 0.16 0.00 87 1011.3
20260508235745 57 67 2.0 3.0 0.00 0.16 0.00 87 1011.3
20260508235245 57 112 0.0 2.0 0.00 0.16 0.00 87 1011.2
20260508234744 57 112 2.0 3.0 0.00 0.16 0.00 87 1011.2
20260508234244 57 135 0.0 1.0 0.00 0.16 0.00 87 1011.3
20260508233744 57 135 0.0 0.0 0.00 0.16 0.00 87 1011.2
20260508233244 57 135 0.0 2.0 0.00 0.16 0.00 87 1011.2
20260508232743 57 135 0.0 2.0 0.00 0.16 0.00 87 1011.2
20260508232243 57 135 0.0 2.0 0.00 0.16 0.00 87 1011.2
20260508231743 57 135 0.0 2.0 0.00 0.16 0.00 86 1011.2
20260508231242 57 202 0.0 2.0 0.00 0.16 0.00 86 1011.3
20260508230742 57 202 1.0 1.0 0.00 0.16 0.00 86 1011.4
20260508230242 57 202 0.0 0.0 0.02 0.16 0.00 86 1011.3
20260508225742 57 202 0.0 0.0 0.02 0.16 0.00 86 1011.4
20260508225241 57 202 0.0 0.0 0.02 0.16 0.00 86 1011.4
20260508224741 57 202 0.0 0.0 0.02 0.16 0.00 86 1011.4
20260508224241 57 202 0.0 1.0 0.02 0.16 0.00 86 1011.4
20260508223740 57 202 0.0 1.0 0.02 0.16 0.00 86 1011.5
20260508223240 57 202 1.0 2.0 0.02 0.16 0.00 85 1011.6
20260508222740 58 202 0.0 0.0 0.02 0.16 0.00 85 1011.6
20260508222240 58 202 0.0 0.0 0.02 0.16 0.00 85 1011.6
20260508221739 58 202 0.0 1.0 0.02 0.16 0.00 84 1011.6
20260508221239 58 202 0.0 1.0 0.02 0.16 0.00 84 1011.7
20260508220739 58 202 0.0 0.0 0.00 0.14 0.00 83 1011.7
20260508220238 58 202 0.0 0.0 0.00 0.14 0.00 83 1011.7
20260508215738 58 202 0.0 1.0 0.00 0.14 0.00 83 1011.8
20260508215238 58 202 0.0 0.0 0.00 0.14 0.00 83 1011.9
20260508214737 58 202 0.0 0.0 0.00 0.14 0.00 83 1011.8
20260508214237 58 202 0.0 0.0 0.00 0.14 0.00 83 1011.8
20260508213737 58 202 0.0 0.0 0.00 0.14 0.00 83 1011.8
20260508213237 58 202 0.0 0.0 0.00 0.14 0.00 82 1011.7
20260508212736 59 202 0.0 1.0 0.02 0.14 0.00 82 1011.9
20260508212236 59 202 0.0 0.0 0.02 0.14 0.00 82 1011.9
20260508211736 59 202 0.0 0.0 0.02 0.14 0.00 82 1011.9
20260508211235 59 202 0.0 0.0 0.02 0.14 0.00 82 1012.0
20260508210735 59 202 0.0 0.0 0.02 0.14 0.00 82 1012.0
20260508210235 59 202 0.0 0.0 0.04 0.14 0.00 82 1012.0
20260508205734 59 202 0.0 0.0 0.04 0.14 0.00 81 1012.0
20260508205234 60 202 0.0 0.0 0.04 0.14 0.00 80 1012.0
20260508204734 60 202 0.0 1.0 0.04 0.14 0.00 80 1012.0
20260508204234 60 202 0.0 1.0 0.04 0.14 0.00 79 1012.0
20260508203733 60 202 0.0 0.0 0.04 0.14 0.00 79 1012.1
20260508203233 60 202 0.0 1.0 0.02 0.12 0.00 78 1012.0
20260508202733 60 202 0.0 3.0 0.02 0.12 0.00 78 1012.1
20260508202232 61 202 1.0 2.0 0.02 0.12 0.00 78 1012.1
20260508201732 61 202 0.0 2.0 0.04 0.12 0.00 77 1012.1
20260508201232 61 202 0.0 5.0 0.04 0.12 0.00 77 1012.1
20260508200732 62 202 2.0 4.0 0.02 0.10 0.00 77 1012.1
20260508200231 62 225 1.0 4.0 0.02 0.10 0.00 77 1012.1
20260508195731 62 225 0.0 2.0 0.02 0.10 0.00 76 1012.0
20260508195231 62 225 0.0 3.0 0.02 0.10 0.00 77 1012.0
20260508194730 62 225 0.0 2.0 0.02 0.10 0.00 76 1011.9
20260508194230 62 225 0.0 3.0 0.02 0.10 0.00 76 1011.9
20260508193730 62 225 0.0 3.0 0.02 0.10 0.00 75 1011.9
20260508193229 63 292 0.0 0.0 0.02 0.10 0.00 74 1011.9
20260508192729 63 292 0.0 0.0 0.02 0.10 0.00 72 1011.9
20260508192229 63 292 0.0 0.0 0.02 0.10 0.00 71 1011.8
20260508191729 64 292 0.0 0.0 0.00 0.08 0.00 71 1011.8
20260508191228 64 292 0.0 2.0 0.00 0.08 0.00 70 1011.6
20260508190728 64 292 2.0 2.0 0.00 0.08 0.00 69 1011.7
20260508190228 64 292 0.0 2.0 0.00 0.08 0.00 69 1011.7
20260508185727 64 292 2.0 2.0 0.00 0.08 0.00 69 1011.7
20260508185227 64 292 0.0 2.0 0.00 0.08 0.00 70 1011.6
20260508184727 64 292 2.0 2.0 0.00 0.08 0.00 70 1011.5
20260508184227 64 292 0.0 1.0 0.00 0.08 0.00 70 1011.6
20260508183726 63 292 0.0 1.0 0.00 0.08 0.00 70 1011.5
20260508183226 64 292 0.0 2.0 0.00 0.08 0.00 70 1011.5
20260508182726 64 0 0.0 0.0 0.00 0.08 0.00 70 1011.4
20260508182225 64 0 0.0 2.0 0.00 0.08 0.00 68 1011.3
20260508181725 64 292 1.0 2.0 0.00 0.08 0.00 68 1011.3
20260508181225 64 337 0.0 0.0 0.00 0.08 0.00 67 1011.1
20260508180725 64 337 0.0 0.0 0.00 0.08 0.00 67 1011.0
20260508180224 64 337 0.0 1.0 0.00 0.08 0.00 67 1011.0
20260508175724 64 337 0.0 2.0 0.00 0.08 0.00 67 1010.9
20260508175224 64 292 0.0 0.0 0.00 0.08 0.00 67 1010.8
20260508174723 64 292 0.0 2.0 0.00 0.08 0.00 66 1010.8
20260508174223 64 292 0.0 2.0 0.00 0.08 0.00 67 1010.8
20260508173723 64 292 2.0 2.0 0.00 0.08 0.00 67 1010.7
20260508173226 64 292 0.0 4.0 0.00 0.08 0.00 67 1010.7
20260508172722 64 292 0.0 3.0 0.00 0.08 0.00 67 1010.7
20260508172222 64 247 1.0 7.0 0.00 0.08 0.00 67 1010.7
20260508171722 64 292 2.0 7.0 0.00 0.08 0.00 67 1010.7
20260508171221 64 292 3.0 6.0 0.00 0.08 0.00 67 1010.6
20260508170721 65 247 2.0 5.0 0.00 0.08 0.00 67 1010.5
20260508170221 65 292 3.0 9.0 0.00 0.08 0.00 67 1010.3
20260508165720 66 292 1.0 8.0 0.00 0.08 0.00 66 1010.2
20260508165220 66 292 8.0 13.0 0.00 0.08 0.00 65 1010.2
20260508164720 67 247 2.0 6.0 0.00 0.08 0.00 64 1010.2
20260508164220 68 292 2.0 7.0 0.00 0.08 0.00 63 1010.2
20260508163719 68 292 0.0 5.0 0.00 0.08 0.00 63 1010.0
20260508163219 68 292 4.0 9.0 0.00 0.08 0.00 62 1009.9
20260508162719 69 292 3.0 5.0 0.00 0.08 0.00 61 1009.9
20260508162218 69 292 5.0 6.0 0.00 0.08 0.00 60 1009.9
20260508161718 70 292 0.0 6.0 0.00 0.08 0.00 59 1009.9
20260508161218 70 292 4.0 4.0 0.00 0.08 0.00 58 1009.9
20260508160717 71 292 2.0 6.0 0.00 0.08 0.00 57 1009.9
20260508160217 71 315 3.0 5.0 0.00 0.08 0.00 57 1009.9
20260508155717 71 292 3.0 8.0 0.00 0.08 0.00 55 1010.0
20260508155217 72 292 0.0 4.0 0.00 0.08 0.00 55 1009.8
20260508154716 72 247 2.0 4.0 0.00 0.08 0.00 54 1009.8
20260508154216 72 247 2.0 4.0 0.00 0.08 0.00 54 1009.8
20260508153716 73 315 0.0 2.0 0.00 0.08 0.00 53 1009.8
20260508153215 74 315 0.0 5.0 0.00 0.08 0.00 52 1009.9
20260508152715 75 225 2.0 5.0 0.00 0.08 0.00 51 1009.9
20260508152215 76 225 5.0 5.0 0.00 0.08 0.00 50 1009.9
20260508151715 78 247 0.0 6.0 0.00 0.08 0.00 49 1010.0
20260508151214 79 292 2.0 6.0 0.00 0.08 0.00 49 1010.2
20260508150714 79 225 1.0 3.0 0.00 0.08 0.00 50 1010.1
20260508150214 78 292 0.0 2.0 0.00 0.08 0.00 52 1010.4
20260508145713 77 315 1.0 4.0 0.00 0.08 0.00 52 1010.4
20260508145213 77 315 1.0 5.0 0.00 0.08 0.00 52 1010.5
20260508144713 77 292 2.0 3.0 0.00 0.08 0.00 52 1010.4
20260508144212 77 247 0.0 3.0 0.00 0.08 0.00 52 1010.4
20260508143712 77 247 0.0 4.0 0.00 0.08 0.00 54 1010.3
20260508143212 76 292 0.0 2.0 0.00 0.08 0.00 54 1010.4
20260508142712 75 292 0.0 4.0 0.00 0.08 0.00 56 1010.3
20260508142211 75 247 0.0 4.0 0.00 0.08 0.00 57 1010.3
20260508141711 74 247 1.0 6.0 0.00 0.08 0.00 58 1010.3
20260508141211 73 202 1.0 6.0 0.00 0.08 0.00 59 1010.4
20260508140710 71 225 4.0 6.0 0.00 0.08 0.00 61 1010.5
20260508140210 70 247 0.0 7.0 0.00 0.08 0.00 61 1010.6
20260508135710 70 225 5.0 8.0 0.00 0.08 0.00 62 1010.6
20260508135209 69 202 2.0 7.0 0.00 0.08 0.00 64 1010.7
20260508134709 69 202 5.0 10.0 0.00 0.08 0.00 65 1010.9
20260508134209 68 225 3.0 4.0 0.00 0.08 0.00 65 1010.7
20260508133732 68 225 1.0 11.0 0.00 0.08 0.00 64 1010.8
20260508133208 69 225 9.0 11.0 0.00 0.08 0.00 63 1011.1
20260508132708 70 247 6.0 10.0 0.00 0.08 0.00 61 1011.2
20260508132208 70 292 2.0 7.0 0.00 0.08 0.00 60 1011.0
20260508131707 71 225 4.0 8.0 0.00 0.08 0.00 61 1011.1
20260508131207 71 315 6.0 6.0 0.00 0.08 0.00 61 1011.1
20260508130707 71 292 2.0 11.0 0.02 0.08 0.00 61 1011.2
20260508130207 72 292 7.0 11.0 0.04 0.08 0.00 63 1011.1
20260508125706 72 292 2.0 8.0 0.06 0.08 0.00 63 1011.1
20260508125206 72 292 3.0 10.0 0.06 0.08 0.00 62 1011.2
20260508124706 71 292 4.0 5.0 0.06 0.08 0.00 64 1011.2
20260508124205 70 0 0.0 0.0 0.06 0.08 0.00 66 1011.1
20260508123705 69 0 0.0 2.0 0.06 0.08 0.00 65 1011.2
20260508123205 68 0 0.0 2.0 0.06 0.08 0.00 66 1011.3
20260508122704 68 337 1.0 2.0 0.06 0.08 0.00 67 1011.3
20260508122204 67 292 0.0 1.0 0.06 0.08 0.00 68 1011.4
20260508121704 68 292 1.0 1.0 0.06 0.08 0.00 67 1011.4
20260508121204 68 292 0.0 3.0 0.04 0.06 0.00 65 1011.5
20260508120703 70 225 3.0 5.0 0.02 0.04 0.00 62 1011.5
20260508120203 73 247 3.0 8.0 0.00 0.02 0.00 56 1011.5
20260508115703 75 292 0.0 8.0 0.00 0.02 0.00 50 1011.5
20260508115202 75 292 2.0 9.0 0.00 0.02 0.00 49 1011.4
20260508114702 76 292 1.0 11.0 0.00 0.02 0.00 48 1011.5
20260508114202 77 292 5.0 8.0 0.00 0.02 0.00 48 1011.4
20260508113702 77 292 1.0 9.0 0.00 0.02 0.00 47 1011.5
20260508113201 78 292 2.0 8.0 0.00 0.02 0.00 48 1011.4
20260508112701 78 292 3.0 9.0 0.00 0.02 0.00 48 1011.4
20260508112201 78 292 2.0 8.0 0.00 0.02 0.00 48 1011.4
20260508111700 78 292 5.0 6.0 0.00 0.02 0.00 48 1011.5
20260508111200 78 292 1.0 10.0 0.00 0.02 0.00 48 1011.5
20260508110700 78 292 0.0 3.0 0.00 0.02 0.00 48 1011.5
20260508110200 78 292 0.0 5.0 0.00 0.02 0.00 48 1011.5
20260508105659 78 292 4.0 10.0 0.00 0.02 0.00 48 1011.5
20260508105159 78 292 3.0 6.0 0.00 0.02 0.00 49 1011.3
20260508104659 77 292 1.0 6.0 0.00 0.02 0.00 49 1011.4
20260508104158 77 292 2.0 11.0 0.00 0.02 0.00 48 1011.4
20260508103658 77 292 5.0 6.0 0.00 0.02 0.00 49 1011.5
20260508103158 77 247 1.0 8.0 0.00 0.02 0.00 49 1011.4
20260508102657 77 292 4.0 9.0 0.00 0.02 0.00 49 1011.5
20260508102157 77 292 3.0 8.0 0.00 0.02 0.00 49 1011.5
20260508101657 77 292 8.0 8.0 0.00 0.02 0.00 50 1011.5
20260508101157 77 292 6.0 14.0 0.00 0.02 0.00 50 1011.6
20260508100656 76 292 4.0 12.0 0.00 0.02 0.00 51 1011.5
20260508100156 76 292 2.0 6.0 0.00 0.02 0.00 52 1011.6
20260508095656 75 292 1.0 9.0 0.00 0.02 0.00 53 1011.6
20260508095155 75 0 2.0 8.0 0.00 0.02 0.00 53 1011.7
20260508094655 75 292 0.0 7.0 0.00 0.02 0.00 53 1011.8
20260508094155 74 292 6.0 8.0 0.00 0.02 0.00 53 1011.9
20260508093655 74 292 7.0 10.0 0.00 0.02 0.00 53 1012.1
20260508093154 75 292 4.0 8.0 0.00 0.02 0.00 53 1012.1
20260508092654 75 292 3.0 8.0 0.00 0.02 0.00 53 1012.1
20260508092154 74 292 4.0 7.0 0.00 0.02 0.00 53 1012.0
20260508091653 74 337 2.0 8.0 0.00 0.02 0.00 53 1012.0
20260508091153 75 22 3.0 10.0 0.00 0.02 0.00 51 1012.0
20260508090653 75 292 7.0 10.0 0.00 0.02 0.00 53 1012.0
20260508090153 74 292 6.0 8.0 0.00 0.02 0.00 55 1012.0
20260508085652 73 22 0.0 6.0 0.00 0.02 0.00 56 1012.0
20260508085152 71 292 3.0 6.0 0.00 0.02 0.00 57 1012.1
20260508084652 71 22 4.0 7.0 0.00 0.02 0.00 57 1012.0
20260508084151 72 22 4.0 6.0 0.00 0.02 0.00 54 1012.0
20260508083651 73 22 5.0 7.0 0.00 0.02 0.00 53 1012.0
20260508083151 74 315 1.0 7.0 0.00 0.02 0.00 51 1012.1
20260508082650 77 22 3.0 8.0 0.00 0.02 0.00 51 1012.2
20260508082150 78 225 1.0 9.0 0.00 0.02 0.00 52 1012.1
20260508081650 78 292 2.0 5.0 0.00 0.02 0.00 51 1012.1
20260508081150 78 292 1.0 8.0 0.00 0.02 0.00 53 1012.0
20260508080649 77 337 2.0 6.0 0.00 0.02 0.00 54 1012.1
20260508080149 77 45 2.0 4.0 0.00 0.02 0.00 53 1012.0
20260508075649 76 292 0.0 4.0 0.00 0.02 0.00 55 1012.2
20260508075148 76 292 0.0 6.0 0.00 0.02 0.00 54 1012.2
20260508074648 76 292 3.0 9.0 0.00 0.02 0.00 57 1012.1
20260508074148 74 247 0.0 6.0 0.00 0.02 0.00 57 1012.1
20260508073648 73 315 1.0 5.0 0.00 0.02 0.00 58 1012.2
20260508073147 72 22 0.0 4.0 0.00 0.02 0.00 58 1012.2
20260508072647 72 292 1.0 5.0 0.00 0.02 0.00 60 1012.1
20260508072147 71 292 1.0 4.0 0.00 0.02 0.00 62 1012.2
20260508071646 70 22 2.0 3.0 0.00 0.02 0.00 62 1012.2
20260508071146 70 45 0.0 3.0 0.00 0.02 0.00 63 1012.2
20260508070646 70 22 2.0 5.0 0.00 0.02 0.00 62 1012.3
20260508070145 70 45 1.0 4.0 0.00 0.02 0.00 63 1012.3
20260508065645 69 292 1.0 4.0 0.00 0.02 0.00 66 1012.3
20260508065145 68 22 2.0 3.0 0.00 0.02 0.00 67 1012.3
20260508064645 67 22 2.0 4.0 0.00 0.02 0.00 67 1012.2
20260508064144 67 0 2.0 3.0 0.00 0.02 0.00 67 1012.2
20260508063644 67 337 0.0 3.0 0.00 0.02 0.00 66 1012.3
20260508063144 67 22 1.0 3.0 0.00 0.02 0.00 66 1012.2
20260508062643 68 22 2.0 2.0 0.00 0.02 0.00 65 1012.3
20260508062143 68 337 2.0 3.0 0.00 0.02 0.00 65 1012.3
20260508061643 69 45 1.0 2.0 0.00 0.02 0.00 65 1012.3
20260508061143 69 0 1.0 2.0 0.00 0.02 0.00 65 1012.3
20260508060642 69 0 0.0 2.0 0.00 0.02 0.00 65 1012.3
20260508060142 70 337 1.0 1.0 0.00 0.02 0.00 65 1012.2
20260508055642 70 337 0.0 0.0 0.00 0.02 0.00 66 1012.3
20260508055141 69 337 0.0 2.0 0.00 0.02 0.00 67 1012.3
20260508054641 68 0 2.0 2.0 0.00 0.02 0.00 68 1012.3
20260508054141 67 0 2.0 2.0 0.00 0.02 0.00 69 1012.3
20260508053640 66 0 0.0 2.0 0.00 0.02 0.00 68 1012.3
20260508053140 67 22 2.0 3.0 0.00 0.02 0.00 68 1012.2
20260508052640 68 0 2.0 3.0 0.00 0.02 0.00 69 1012.2
20260508052140 67 0 0.0 1.0 0.00 0.02 0.00 71 1012.3
20260508051639 65 0 0.0 2.0 0.00 0.02 0.00 72 1012.2
20260508051139 65 292 1.0 2.0 0.00 0.02 0.00 72 1012.2
20260508050639 65 292 1.0 2.0 0.00 0.02 0.00 73 1012.2
20260508050138 65 202 1.0 2.0 0.00 0.02 0.00 74 1012.2
20260508045638 65 202 2.0 2.0 0.00 0.02 0.00 75 1012.1
20260508045138 64 202 0.0 0.0 0.00 0.02 0.00 78 1012.1
20260508044638 62 202 0.0 1.0 0.00 0.02 0.00 78 1012.1
20260508044137 62 202 1.0 1.0 0.00 0.02 0.00 80 1012.1
20260508043637 61 202 0.0 1.0 0.00 0.02 0.00 81 1012.1
20260508043137 60 202 0.0 0.0 0.00 0.02 0.00 80 1011.9
20260508042636 59 202 0.0 0.0 0.00 0.02 0.00 81 1011.9
20260508042136 59 202 0.0 0.0 0.00 0.02 0.00 81 1011.9
20260508041636 59 202 0.0 1.0 0.00 0.02 0.00 81 1012.0
20260508041136 59 202 0.0 0.0 0.00 0.02 0.00 81 1011.9
20260508040635 58 202 0.0 0.0 0.00 0.02 0.00 80 1011.9
20260508040135 58 202 0.0 1.0 0.00 0.02 0.00 80 1011.9
20260508035635 58 202 0.0 3.0 0.00 0.02 0.00 80 1011.9
20260508035134 57 202 0.0 2.0 0.00 0.02 0.00 81 1011.9
20260508034634 57 202 2.0 2.0 0.00 0.02 0.00 80 1011.8
20260508034134 57 202 0.0 2.0 0.00 0.02 0.00 80 1011.8
20260508033633 57 202 0.0 3.0 0.00 0.02 0.00 80 1011.7
20260508033133 57 202 2.0 3.0 0.00 0.02 0.00 80 1011.7
20260508032633 57 202 2.0 2.0 0.00 0.02 0.00 81 1011.6
20260508032132 57 202 1.0 3.0 0.00 0.02 0.00 81 1011.6
20260508031632 57 202 0.0 2.0 0.00 0.02 0.00 81 1011.7
20260508031132 57 202 0.0 1.0 0.00 0.02 0.00 81 1011.7
20260508030632 57 202 0.0 1.0 0.00 0.02 0.00 81 1011.7
20260508030131 57 202 0.0 2.0 0.00 0.02 0.00 81 1011.6
20260508025631 57 202 0.0 2.0 0.00 0.02 0.00 81 1011.6
20260508025131 57 202 0.0 4.0 0.00 0.02 0.00 81 1011.6
20260508024630 57 247 0.0 0.0 0.00 0.02 0.00 82 1011.6
20260508024130 57 247 0.0 0.0 0.00 0.02 0.00 81 1011.5
20260508023630 57 247 0.0 0.0 0.00 0.02 0.00 82 1011.5
20260508023130 57 247 0.0 0.0 0.00 0.02 0.00 82 1011.4
20260508022629 57 247 0.0 2.0 0.00 0.02 0.00 82 1011.5
20260508022129 57 292 0.0 2.0 0.00 0.02 0.00 82 1011.5
20260508021629 57 292 0.0 0.0 0.00 0.02 0.00 81 1011.6
20260508021128 57 292 0.0 0.0 0.00 0.02 0.00 81 1011.5
20260508020628 57 292 0.0 0.0 0.00 0.02 0.00 81 1011.6
20260508020128 57 292 0.0 0.0 0.02 0.02 0.00 81 1011.7
20260508015628 57 292 0.0 0.0 0.02 0.02 0.00 81 1011.8
20260508015127 57 292 0.0 0.0 0.02 0.02 0.00 81 1011.7
20260508014627 57 292 0.0 2.0 0.02 0.02 0.00 81 1011.8
20260508014127 57 292 0.0 0.0 0.02 0.02 0.00 81 1011.7
20260508013626 57 292 0.0 0.0 0.02 0.02 0.00 81 1011.8
20260508013126 57 292 0.0 0.0 0.02 0.02 0.00 80 1011.7
20260508012626 57 292 0.0 0.0 0.02 0.02 0.00 79 1011.7
20260508012125 57 292 0.0 1.0 0.02 0.02 0.00 79 1011.7
20260508011625 58 292 0.0 0.0 0.02 0.02 0.00 77 1011.7
20260508011125 58 292 0.0 0.0 0.02 0.02 0.00 77 1011.7
20260508010625 58 292 0.0 0.0 0.02 0.02 0.00 77 1011.8